Weather History for Tetuan, Morocco

Change the Weather History Date:

Friday, October 14, 2011

  Actual Average Record
Temperature  
Mean Temperature 68 °F -  
Max Temperature 76 °F 69 °F 81 °F (2012)
Min Temperature 59 °F 58 °F 57 °F (2013)
Cooling Degree Days 2    
Growing Degree Days 18 (Base 50)    
Moisture  
Dew Point 62 °F    
Average Humidity 77    
Maximum Humidity 94    
Minimum Humidity 47    
Precipitation  
Precipitation 0.00 in - - ()
Sea Level Pressure  
Sea Level Pressure 30.04 in    
Wind  
Wind Speed 6 mph ()    
Max Wind Speed 12 mph    
Max Gust Speed -    
Visibility 4.6 miles    
Events Fog    
Averages and records for this station are not official NWS values.
T = Trace of Precipitation, MM = Missing Value Source: Averaged Metar Reports

Daily Weather History Graph

Daily Weather History Graph

Search for Another Location

Airport:

Trip Planner

Search our weather history database for the weather conditions in past years. The results will help you decide how hot, cold, wet, or windy it might be!

Date:

Astronomy

Oct. 14, 2011 Rise Set
Actual Time 6:26 AM WET 5:47 PM WET
Civil Twilight 6:00 AM WET 6:13 PM WET
Nautical Twilight 5:31 AM WET 6:42 PM WET
Astronomical Twilight 5:01 AM WET 7:12 PM WET
Moon 6:59 PM WET (10/14) 8:35 AM WET (10/14)
Length of Visible Light 12h 12m
Length of Day
11h 21m
Waning Gibbous, 95% of the Moon is Illuminated
Oct 14
Waning Gibbous
Oct 20
Last Quarter
Oct 26
New
Nov 2
First Quarter
Nov 10
Full

Hourly Weather History & Observations

Time (WET) Temp. Dew Point Humidity Pressure Visibility Wind Dir Wind Speed Gust Speed Precip Events Conditions
6:00 AM 60 °F 58 °F 90% 30.03 in 4 mi SSW 8.1 mph - -   Scattered Clouds
6:00 AM 59.0 °F 57.2 °F 94% 30.01 in 3.7 mi SSW 8.1 mph - N/A   Partly Cloudy
8:00 AM 62.6 °F 59.0 °F 88% 30.04 in - NW 3.5 mph - N/A Fog Fog
9:00 AM 65 °F 60 °F 81% 30.06 in 2 mi WSW 3.5 mph - -   Mist
9:00 AM 64.4 °F 60.8 °F 88% 30.04 in 1.9 mi WSW 3.5 mph - N/A   Scattered Clouds
10:00 AM 69.8 °F 60.8 °F 73% 30.06 in 5.0 mi ENE 5.8 mph - N/A   Partly Cloudy
12:00 PM 76 °F 60 °F 47% 30.05 in 6 mi East 9.2 mph - -   Clear
12:00 PM 75.2 °F 59.0 °F 57% 30.04 in - East 5.8 mph - N/A   Clear
1:00 PM 75.2 °F 59.0 °F 57% 30.04 in - East 8.1 mph - N/A   Clear
2:00 PM 75.2 °F 59.0 °F 57% 30.04 in - East 11.5 mph - N/A   Clear
3:00 PM 74 °F 65 °F 66% 30.04 in 6 mi ENE 9.2 mph - -   Clear
3:00 PM 73.4 °F 64.4 °F 73% 30.04 in - ENE 9.2 mph - N/A   Clear
4:00 PM 73.4 °F 66.2 °F 78% 30.04 in - ENE 8.1 mph - N/A   Clear
5:00 PM 71.6 °F 66.2 °F 83% 30.04 in 6.2 mi ENE 4.6 mph - N/A   Scattered Clouds
6:00 PM 69 °F 65 °F 83% 30.04 in 5 mi ENE 4.6 mph - -   Mostly Cloudy
6:00 PM 69.8 °F 64.4 °F 83% 30.04 in 5.0 mi ENE 4.6 mph - N/A   Mostly Cloudy
7:00 PM 69.8 °F 66.2 °F 88% 30.04 in 5.0 mi NNE 5.8 mph - N/A   Mostly Cloudy
8:00 PM 69.8 °F 66.2 °F 88% 30.04 in 5.0 mi ENE 8.1 mph - N/A   Mostly Cloudy
9:00 PM 70 °F 66 °F 83% 30.07 in 5 mi NE 5.8 mph - -   Overcast
9:00 PM 69.8 °F 66.2 °F 88% 30.06 in 5.0 mi NE 5.8 mph - N/A   Mostly Cloudy